COSMOS 1275 DEB

Satellite information

Favourite Embed

Satellite Type and Status

DEBRISIN ORBIT

Key statistics

Satellite COSMOS 1275 DEB at a glance.

Uptime

16164

Days in orbit

Revolutions

≈ 13.9

Per day

Orbit

LEO

Low Earth Orbit

Inclination

82.9

Latest

Satellite identification and parameters

Extended collection of information and parameters for COSMOS 1275 DEB.

Object identification

Identified? True

Debris? True

Object name: COSMOS 1275 DEB

International designator: 1981-053TW

Object number (NORAD): 42206

Object ID (CCSDS): 42206

Country: COMMONWEALTH OF INDEPENDENT STATES (CIS)

Current information (Y/N): Y

RCS size: SMALL

Orbital parameters

Period: 103.758 minutes

Inclination: 82.9199 deg

SMA: 7314.326 km

Apoapsis: 964.752 km

Periapsis: 907.63 km

RAAN: 309.6846 deg

Eccentricy: 0.00390479

Argument of periapsis: 238.5202 deg

Mean anomaly: 180.3351 deg

Mean motion: 13.87845974 rev/day

Mean motion (dot): 0.00000695 rev/day2

B* drag term: 0.00056911694 1/REarth

Two-line elements (TLE)

Creation date: Aug. 31, 2025, 2:26 a.m.

Reference frame: TEME

Reference center: EARTH

Epoch: Aug. 30, 2025, 11:29 a.m. UTC

TLE line 0: 0 COSMOS 1275 DEB

TLE line 1: 1 42206U 81053TW 25242.47900757 .00000695 00000-0 56912-3 0 9991

TLE line 2: 2 42206 82.9199 309.6846 0039048 238.5202 180.3351 13.87845974464658

Live tracking on map

Real-time ground track for satellite COSMOS 1275 DEB.

In-orbit conjunctions

A list of the most updated potential collisions computed for object COSMOS 1275 DEB.

Target Orbit TCA Probability of collision Miss distance Type
FENGYUN 1C DEB SSO 2024-10-29 12:44:14 0.0001029752 128.0 (m) DEBRIS
DELTA 1 R/B SSO 2024-08-13 11:46:03 0.0003921469 58.0 (m) ROCKET BODY

Associated space launch

Navigation satellite providing location information for the Tsiklon-B navigation system

COSMOS 1275 DEB was lifted into orbit during the mission ‘Kosmos-3M | Parus 27’, on board a Kosmos-3M space rocket.

The launch took place on June 4, 1981, 3:41 p.m. from 132/2.

For more information about the launch, click the button.

Launch to space Kosmos-3M | Parus 27
Kosmos-3M | Parus 27

Agency: N/A

Status: Launch Successful

Launch date: June 4, 1981, 3:41 p.m. UTC

Rocket: Kosmos-3M

Launch pad: 132/2

Location: Plesetsk Cosmodrome, Russian Federation

...

Latest news about this satellite

There are no fresh news available about this satellite. Check back as we update our databases every day.


Newsletter sign-up

Weekly statistics, charts and insights to help you stay on top of the space industry.